Louisville Bowman, KY

4:21 AM EST on December 12, 2017 (GMT -0500)
Bowman

Weather History for KLOU - May, 2013

Change the Weather History Date:

Wednesday, May 8, 2013

  Actual Average Record
Temperature  
Mean Temperature 67 °F 64 °F  
Max Temperature 80 °F 74 °F 91 °F (1993)
Min Temperature 53 °F 54 °F 36 °F (1960)
Degree Days  
Heating Degree Days 0 3  
Month to date heating degree days 20 31  
Since 1 July heating degree days 4283 4222  
Cooling Degree Days 2 2  
Month to date cooling degree days 14 15  
Year to date cooling degree days 51 49  
Growing Degree Days 16 (Base 50)    
Moisture  
Dew Point 55 °F    
Average Humidity 69    
Maximum Humidity 100    
Minimum Humidity 37    
Precipitation  
Precipitation 0.00 in 0.18 in 2.35 in (1972)
Month to date precipitation 1.43 1.47  
Year to date precipitation 16.02 16.27  
Sea Level Pressure  
Sea Level Pressure 29.99 in    
Wind  
Wind Speed 3 mph (NNW)    
Max Wind Speed 15 mph    
Max Gust Speed 18 mph    
Visibility 8 miles    
Events Fog    
T = Trace of Precipitation, MM = Missing Value Source: NWS Daily Summary

Daily Weather History Graph

Daily Weather History Graph

Search for Another Location

Airport or City:

Trip Planner

Search our weather history database for the weather conditions in past years. The results will help you decide how hot, cold, wet, or windy it might be!

Date:

Astronomy

May. 08, 2013 Rise Set
Actual Time 6:38 AM EDT 8:40 PM EDT
Civil Twilight 6:09 AM EDT 9:09 PM EDT
Nautical Twilight 5:33 AM EDT 9:45 PM EDT
Astronomical Twilight 4:55 AM EDT 10:23 PM EDT
Moon 5:44 AM EDT (5/8) 7:39 PM EDT (5/8)
Length of Visible Light 15h 00m
Length of Day
14h 02m
Waning Crescent, 2% of the Moon is Illuminated
May 8
Waning Crescent
May 9
New
May 18
First Quarter
May 25
Full
May 31
Last Quarter

Hourly Weather History & Observations

Time (EDT) Temp. Dew Point Humidity Pressure Visibility Wind Dir Wind Speed Gust Speed Precip Events Conditions
12:53 AM 62.1 °F 55.0 °F 78% 29.96 in 10.0 mi Calm Calm - N/A   Scattered Clouds
1:53 AM 61.0 °F 55.9 °F 83% 29.96 in 10.0 mi NW 3.5 mph - N/A   Overcast
2:53 AM 59.0 °F 55.0 °F 87% 29.94 in 10.0 mi Calm Calm - N/A   Clear
3:53 AM 57.0 °F 55.0 °F 93% 29.94 in 10.0 mi Calm Calm - N/A   Clear
4:53 AM 57.0 °F 55.0 °F 93% 29.94 in 9.0 mi Calm Calm - N/A   Clear
5:53 AM 55.9 °F 54.0 °F 93% 29.95 in 7.0 mi Calm Calm - N/A   Clear
6:53 AM 54.0 °F 53.1 °F 97% 29.97 in 7.0 mi Calm Calm - N/A   Clear
6:56 AM 55.4 °F 53.6 °F 94% 29.98 in 1.0 mi Calm Calm - N/A   Clear
6:58 AM 53.6 °F 53.6 °F 100% 29.98 in 0.5 mi Calm Calm - N/A Fog Fog
7:11 AM 55.4 °F 53.6 °F 94% 29.99 in 5.0 mi Calm Calm - N/A   Clear
7:53 AM 57.9 °F 55.9 °F 93% 30.00 in 5.0 mi WNW 4.6 mph - N/A   Clear
8:38 AM 59.0 °F 55.4 °F 88% 30.02 in 4.0 mi Calm Calm - N/A   Scattered Clouds
8:53 AM 59.0 °F 57.0 °F 93% 30.02 in 4.0 mi WNW 5.8 mph - N/A   Clear
9:53 AM 64.9 °F 57.0 °F 75% 30.02 in 10.0 mi Calm Calm - N/A   Clear
10:53 AM 68.0 °F 55.0 °F 63% 30.02 in 10.0 mi Variable 5.8 mph - N/A   Clear
11:53 AM 72.0 °F 57.0 °F 59% 30.02 in 10.0 mi NNE 4.6 mph - N/A   Clear
12:53 PM 75.0 °F 54.0 °F 48% 30.02 in 10.0 mi North 3.5 mph - N/A   Partly Cloudy
1:53 PM 75.0 °F 53.1 °F 46% 30.00 in 10.0 mi Variable 3.5 mph - N/A   Partly Cloudy
2:53 PM 77.0 °F 52.0 °F 42% 30.00 in 10.0 mi Calm Calm - N/A   Clear
3:53 PM 78.1 °F 53.1 °F 42% 29.98 in 10.0 mi Calm Calm - N/A   Mostly Cloudy
4:53 PM 78.1 °F 50.0 °F 37% 29.96 in 10.0 mi WNW 10.4 mph - N/A   Partly Cloudy
5:53 PM 73.9 °F 53.1 °F 48% 29.97 in 10.0 mi WNW 5.8 mph - N/A   Clear
6:53 PM 75.0 °F 53.1 °F 46% 29.98 in 10.0 mi NE 6.9 mph - N/A   Clear
7:53 PM 73.0 °F 53.1 °F 49% 29.98 in 10.0 mi ENE 5.8 mph - N/A   Clear
8:53 PM 70.0 °F 55.0 °F 59% 30.00 in 10.0 mi Calm Calm - N/A   Clear
9:53 PM 66.9 °F 55.9 °F 68% 30.01 in 10.0 mi WSW 3.5 mph - N/A   Partly Cloudy
10:53 PM 66.9 °F 55.9 °F 68% 30.02 in 10.0 mi Calm Calm - N/A   Mostly Cloudy
11:53 PM 66.0 °F 57.0 °F 73% 30.02 in 10.0 mi Calm Calm - N/A   Scattered Clouds